Temp_Advection
nan nan nan nan nan nan nan nan nan nan nan nan nan nan nan nan nan nan nan nan nan nan nan nan nan nan nan nan nan nan nan nan nan nan nan nan nan nan nan nan nan nan nan
nan 0 0 0 0 0 0 -0 -0 -0 0 -0 0 0 0 0 0 0 0 0 -0 0 0 0 0 0 0 0 0 0 0 0 0 0 0 0 0 -0 0 0 0 0 nan
nan 0 -0 0 -0 -0 0 -0 -0 -0 0 0 0 0 0 0 -0 -0 -0 0 1 0 -0 -0 0 0 0 0 0 0 0 0 -0 0 0 0 -0 -0 0 0 0 0 nan
nan -0 0 0 -0 -0 0 0 0 0 0 0 0 0 -0 -0 0 0 -0 -0 1 1 0 0 -0 0 0 0 0 0 -0 -0 0 0 0 -0 -0 0 0 0 0 -0 nan
nan 0 0 -0 -0 -0 0 -0 0 0 0 0 0 -0 -0 0 0 0 -0 -0 0 1 1 -0 0 0 0 0 0 0 0 0 0 0 -0 -0 0 0 0 0 0 0 nan
nan 0 0 -0 0 0 -0 0 0 0 0 0 -0 0 0 0 -0 -0 0 0 0 0 1 0 0 -0 0 0 0 -0 0 0 0 -0 -0 0 0 0 0 0 0 0 nan
nan 0 0 0 -0 -0 0 -0 -0 0 0 0 -0 -0 -0 0 0 0 0 0 0 1 -0 -1 -0 -0 0 -0 -0 0 0 -0 0 -0 -0 0 0 -0 -0 0 0 0 nan
nan -0 0 -0 0 0 -0 -0 -0 -0 -0 -0 -0 -0 -0 0 0 0 0 0 0 0 -0 -0 0 -0 -0 -0 -0 1 0 -0 0 -0 -0 0 0 0 0 0 0 0 nan
nan -0 -0 -0 -0 -0 -0 -0 0 0 0 0 -0 -0 -0 -0 -0 0 0 0 0 0 0 -0 -0 -0 -0 -0 -0 -0 -0 -0 0 -0 -0 0 0 0 0 0 0 0 nan
nan 0 0 0 0 0 -0 -0 -0 -0 0 0 0 0 0 -0 -0 -0 0 0 0 0 0 0 -0 -0 -0 -0 -0 -0 -0 -0 0 0 0 0 0 0 0 0 0 0 nan
nan 0 0 0 0 -0 -0 -0 -0 -0 -0 -0 -0 0 -0 0 -0 -0 -0 -0 0 1 0 0 0 0 -0 -0 -0 -0 -0 0 0 0 0 0 -0 -0 -0 0 0 0 nan
nan 0 -0 0 0 0 0 0 0 0 0 0 -0 -0 0 -0 0 -0 -0 -0 -0 -0 0 0 0 0 -0 -0 -0 -0 0 0 -0 -0 -0 -0 0 -0 -0 0 0 0 nan
nan 0 -0 -0 0 0 0 0 0 0 -0 -0 -0 0 -0 -0 0 0 0 0 0 -0 -1 0 2 1 0 -0 -0 0 0 -0 -0 -1 -0 -0 -0 0 -0 0 0 1 nan
nan 0 -0 -0 -0 0 0 0 0 0 0 0 0 0 -0 -0 -0 -0 0 0 0 0 -0 -0 2 1 -0 -1 0 0 -0 -1 -1 -0 -0 -1 -1 -0 0 0 0 1 nan
nan 0 0 -0 -0 0 -0 0 0 0 -0 -0 0 0 -0 -0 -0 -0 -0 -0 -0 -0 -0 -0 -0 -0 -0 0 -0 -0 -0 -1 -1 -0 -1 0 1 -1 -1 -0 0 1 nan
nan 0 0 0 -0 -0 -0 -0 0 0 0 0 -0 -0 0 0 0 0 -0 -0 -0 -0 0 0 -0 -0 -0 0 0 -0 -0 0 -0 -1 -1 0 0 -0 0 -0 -0 1 nan
nan 0 0 -0 -0 0 0 0 0 0 0 0 0 0 -0 -0 -0 0 0 -0 -0 -0 0 -0 -0 0 0 0 0 0 -0 -0 -0 -0 0 -0 -1 0 0 0 1 0 nan
nan 0 0 0 0 0 0 0 0 0 0 0 0 0 -0 -0 -0 -0 -0 -0 -0 -0 -0 -0 -0 -0 -0 -1 -0 0 0 0 -0 -0 -0 1 1 -1 -0 1 1 -0 nan
nan 0 0 0 0 0 0 0 0 0 0 0 0 0 -0 -0 -0 -0 0 -0 -0 -0 -0 -0 -0 -0 -0 -0 -1 -1 -0 0 0 -0 0 -0 -1 1 1 -0 -1 -0 nan
nan 0 0 0 0 0 0 0 0 0 0 0 0 0 0 0 -0 -0 0 0 -0 -0 -0 -0 -0 -0 -0 -0 -1 -1 -1 -0 -0 -0 -0 0 0 -1 -0 0 -0 -1 nan
nan 0 0 0 0 0 -0 -0 -0 0 0 -0 0 0 0 0 0 -0 -0 0 0 0 0 0 -0 -0 -0 0 0 -1 -1 -1 -1 0 0 0 0 -1 -0 1 0 -1 nan
nan 0 0 0 0 0 -0 -0 0 0 0 0 0 0 0 0 0 0 0 -0 0 0 0 0 0 -0 -0 -0 0 -0 -1 -0 -0 0 0 0 0 -0 -0 -0 -0 0 nan
nan 0 0 0 0 0 0 0 1 0 0 -0 0 0 0 0 0 0 0 0 0 -0 -0 0 0 -0 -0 -0 -0 -0 -0 -0 -1 -1 -0 -0 -0 -0 0 0 -1 -0 nan
nan 1 0 0 0 0 0 0 0 -0 -0 -0 0 0 0 1 0 0 0 0 0 0 -0 -0 -0 0 -0 -0 -0 -0 -0 -0 0 -0 -1 -1 -0 -0 -0 0 0 -1 nan
nan 1 0 0 0 0 1 1 1 1 0 0 0 1 1 0 0 0 0 0 0 -0 -0 0 0 -0 -0 -0 -0 -0 -0 -0 -0 -0 -0 -0 -1 -1 -0 0 -0 -0 nan
nan nan nan nan nan nan nan nan nan nan nan nan nan nan nan nan nan nan nan nan nan nan nan nan nan nan nan nan nan nan nan nan nan nan nan nan nan nan nan nan nan nan nan
Wind_Speed
6 4 3 2 2 4 7 8 6 5 5 4 4 5 7 10 11 9 7 6 7 9 10 10 11 12 11 9 9 7 6 6 5 5 5 6 5 4 3 5 11 8 9
4 4 2 4 3 2 2 1 4 5 5 6 6 6 8 10 9 7 8 7 8 11 12 11 11 12 12 10 10 8 8 7 6 4 4 7 7 6 5 8 15 13 13
6 5 5 4 6 4 3 2 2 3 2 4 5 6 9 10 12 10 7 9 14 11 12 11 11 11 11 12 11 10 9 9 7 5 3 3 4 5 7 9 17 15 13
8 9 1 6 7 5 5 4 2 4 6 6 9 7 9 12 13 19 17 23 29 18 14 12 10 10 10 11 11 12 12 10 9 5 4 3 6 11 9 9 12 14 14
6 6 1 6 7 4 4 5 3 5 8 7 6 6 5 7 14 20 21 20 17 15 18 15 12 13 13 13 11 11 12 12 11 9 6 7 6 14 8 9 10 10 12
3 5 3 6 7 7 5 3 2 1 2 4 7 8 7 8 7 6 7 10 11 15 20 14 14 15 16 14 14 13 13 13 11 8 6 9 10 13 10 10 9 10 12
4 3 4 6 7 5 4 3 1 1 1 0 1 2 5 9 11 9 9 9 11 15 21 12 12 12 12 13 14 16 14 14 11 7 9 8 9 14 13 12 15 16 16
3 4 6 3 3 3 5 5 4 3 3 3 3 3 2 4 9 11 11 8 10 5 7 12 9 10 11 12 14 18 17 14 12 7 10 9 13 13 12 12 16 20 18
2 2 0 0 7 7 8 7 7 7 6 4 4 4 5 5 6 11 12 10 6 6 4 6 8 10 10 12 11 11 14 15 14 11 10 9 16 15 13 15 18 21 20
1 1 2 2 4 4 6 10 9 9 8 6 5 6 6 7 9 11 17 15 12 11 10 7 7 13 16 16 15 10 11 14 13 12 10 13 19 16 13 18 18 19 23
3 4 5 4 6 6 5 7 7 8 6 7 6 4 4 3 9 9 14 17 18 15 11 9 7 8 15 17 18 21 16 14 13 16 15 16 20 19 18 20 19 19 21
2 3 6 11 11 7 5 4 2 3 2 2 2 3 1 5 6 5 10 13 17 21 14 10 7 3 7 12 17 17 14 12 14 15 13 18 19 20 18 20 21 21 24
3 4 9 10 7 2 6 2 6 9 0 1 0 2 1 3 6 7 9 9 12 14 18 30 34 30 20 16 17 10 14 18 17 19 22 24 25 25 20 21 24 24 26
5 5 6 4 1 2 1 1 2 3 3 3 3 4 3 4 4 4 5 7 7 11 14 16 25 26 22 17 21 20 21 25 25 24 24 26 28 29 25 23 25 26 29
6 5 3 3 2 2 2 3 4 4 4 3 2 1 1 3 4 4 6 8 7 5 5 9 10 15 19 16 14 23 22 27 25 25 27 25 28 31 32 29 26 29 31
7 6 5 5 6 5 6 5 3 3 1 1 0 0 0 1 2 2 3 5 7 8 9 11 15 17 16 17 22 22 23 26 23 25 30 29 28 31 31 32 30 35 32
9 9 7 8 9 9 9 6 6 5 3 2 1 0 1 1 3 2 3 4 7 10 9 12 17 21 21 21 23 21 21 23 25 25 27 27 30 31 36 39 37 37 39
13 12 11 10 10 9 10 6 6 6 6 5 4 3 2 3 5 6 5 5 9 9 12 11 11 13 17 22 25 25 25 24 24 25 28 25 23 25 30 33 38 41 43
12 11 10 10 9 9 8 7 8 8 6 6 5 4 1 2 4 4 5 7 9 8 9 11 11 12 13 14 23 29 28 30 28 27 28 28 28 28 27 28 31 39 42
14 13 13 12 12 11 10 11 9 9 8 6 6 6 2 3 2 1 4 6 7 6 6 8 10 10 12 13 17 22 24 26 28 29 27 28 28 28 29 33 31 40 40
16 15 15 15 15 13 12 11 10 11 10 10 9 7 6 5 4 3 4 7 8 8 10 10 10 11 11 12 16 16 19 23 27 29 29 29 26 27 27 30 32 36 36
19 19 18 17 17 16 14 14 14 14 14 12 11 12 9 9 7 7 8 8 9 11 12 11 12 13 13 13 15 18 16 15 17 21 25 27 28 27 29 29 33 33 37
20 20 20 20 19 18 17 16 16 14 15 14 14 14 15 12 11 11 11 11 12 12 13 15 15 16 17 17 16 17 17 14 25 16 14 21 25 27 32 34 31 33 39
19 19 20 21 21 21 20 20 19 19 19 17 16 15 14 13 13 13 13 14 15 15 17 18 18 20 21 23 21 19 21 23 25 25 22 22 24 26 24 29 37 35 38
16 19 20 22 23 24 23 25 24 25 22 18 16 16 15 14 13 13 13 14 15 16 19 22 25 26 26 27 26 25 25 26 27 29 32 28 25 26 29 30 21 32 35
14 16 18 21 24 25 26 27 28 28 24 19 17 15 15 14 14 13 14 14 15 16 20 23 26 28 29 30 30 31 30 30 30 30 31 31 30 28 26 29 34 33 27
Wind_Direction
7 1 62 67 82 153 175 178 202 225 250 230 240 239 234 229 219 225 233 227 224 227 223 222 221 217 213 207 201 207 214 211 221 212 214 210 199 201 198 149 128 162 185
77 65 104 104 102 140 112 204 187 199 218 222 215 221 228 233 230 220 222 234 244 236 239 239 225 223 220 218 218 212 221 232 232 239 236 243 233 225 217 164 152 195 219
83 72 43 63 60 37 65 14 187 247 260 225 243 229 203 221 249 241 225 303 274 244 244 246 235 232 233 227 224 225 231 240 232 228 236 192 270 243 206 187 182 198 215
72 89 56 65 52 45 49 61 106 221 223 233 265 241 224 237 237 271 250 261 279 283 268 235 229 227 235 236 234 237 245 238 244 243 206 226 242 272 221 201 195 209 207
71 83 76 104 94 89 79 74 118 200 212 261 291 275 275 262 258 257 254 240 263 238 248 233 234 228 232 228 240 243 243 237 240 246 220 241 221 265 241 204 197 196 194
82 47 91 105 101 91 80 87 101 160 236 251 247 251 263 270 285 291 224 238 235 253 235 241 216 229 241 252 262 252 246 238 234 240 226 242 216 247 254 214 189 183 182
101 119 46 74 79 78 79 76 79 145 167 156 307 270 256 251 260 280 268 268 272 251 284 278 260 259 254 258 264 253 240 235 231 233 239 230 231 230 241 211 199 201 198
49 36 25 18 49 24 5 351 340 347 343 341 329 331 278 222 253 258 257 260 262 283 258 270 270 266 275 282 259 244 232 228 229 226 236 238 236 247 241 220 213 204 206
104 117 87 283 327 318 318 324 329 333 332 327 311 290 282 269 243 263 261 261 227 227 252 290 294 286 296 285 264 248 234 228 228 210 244 233 246 247 247 227 217 220 218
286 266 274 295 270 278 311 314 325 329 329 323 304 304 313 299 282 271 265 262 254 237 230 234 284 290 287 282 266 256 258 240 225 210 233 242 243 240 237 226 224 228 235
250 297 285 267 278 290 294 305 334 339 336 330 326 346 338 264 322 317 297 277 271 254 233 227 237 277 285 277 273 268 271 253 235 224 212 246 246 247 240 223 225 229 243
272 310 302 281 271 280 283 294 312 221 208 192 259 318 260 261 263 265 263 275 273 278 259 255 248 274 274 275 281 265 257 235 242 229 231 249 250 254 243 224 228 235 234
267 296 292 292 280 250 256 229 253 278 25 297 349 118 304 297 316 306 303 270 286 286 290 277 259 291 307 296 235 246 255 258 255 253 251 262 259 263 246 225 228 235 237
266 285 296 300 323 174 132 149 187 174 144 127 129 68 36 15 360 341 310 303 307 295 310 315 265 254 289 298 282 284 275 263 261 257 257 253 260 262 247 228 228 236 244
270 270 277 295 296 226 135 157 155 139 148 121 69 3 52 29 357 355 319 320 313 319 342 332 320 306 266 271 307 264 274 277 266 254 257 263 257 254 248 255 235 234 243
247 241 243 242 247 241 227 235 227 210 259 183 240 252 41 318 334 321 315 297 298 288 266 271 278 280 283 284 272 268 266 267 268 267 266 255 249 243 235 243 262 240 238
229 222 225 224 234 229 234 231 201 224 207 188 187 159 350 346 342 358 331 327 309 306 288 265 258 254 254 255 263 264 262 265 265 269 268 265 259 246 248 248 242 229 232
218 218 214 215 215 217 208 207 203 200 184 182 185 208 261 305 332 340 340 329 322 317 316 314 299 286 279 269 259 272 260 266 265 267 259 257 252 252 253 245 239 245 230
227 226 224 223 218 217 220 212 208 218 197 197 186 188 265 307 324 325 316 315 331 326 316 312 310 304 281 283 273 269 270 264 261 261 259 260 263 258 245 253 244 235 233
233 228 226 225 221 219 215 217 219 219 222 217 215 215 219 242 295 11 305 319 334 322 324 325 324 314 305 298 290 286 286 267 265 264 259 250 255 257 256 249 243 237 232
234 235 230 231 226 222 226 230 236 236 235 229 228 216 234 225 251 292 303 306 303 307 308 315 315 309 307 305 308 298 282 283 271 270 262 256 252 254 262 252 242 237 238
237 239 234 232 230 231 238 242 240 244 244 245 244 247 238 243 255 272 278 285 290 295 294 297 299 303 295 297 304 308 305 288 266 260 257 259 253 255 261 255 246 250 239
243 239 241 239 237 239 235 243 239 234 233 240 248 250 255 247 256 267 276 286 290 292 291 289 294 297 299 296 296 296 308 293 312 303 278 270 266 259 256 260 259 248 243
249 247 242 243 244 244 241 238 240 243 248 252 251 247 255 262 265 266 269 276 282 286 289 288 288 289 293 292 293 289 285 289 288 295 284 278 284 278 263 255 259 264 251
259 245 242 242 243 243 241 242 234 243 246 255 258 256 260 263 265 268 270 273 272 277 283 282 283 283 283 286 285 286 286 285 284 281 284 285 279 277 281 266 261 252 257
267 248 247 246 249 246 242 240 245 239 243 248 252 256 256 260 257 267 269 270 275 279 284 283 281 278 277 277 280 281 282 282 281 282 283 283 281 278 271 279 270 246 244
Height
1519 1517 1517 1518 1519 1518 1521 1520 1522 1523 1523 1524 1526 1526 1532 1535 1536 1538 1539 1537 1540 1542 1543 1542 1542 1542 1543 1542 1543 1545 1546 1546 1545 1544 1544 1545 1545 1546 1547 1546 1547 1550 1551
1519 1518 1519 1518 1519 1520 1520 1522 1523 1521 1524 1524 1525 1526 1532 1535 1538 1536 1536 1539 1540 1541 1540 1542 1542 1543 1543 1542 1544 1542 1546 1546 1544 1544 1544 1546 1545 1545 1545 1547 1548 1549 1550
1520 1523 1521 1519 1519 1522 1521 1524 1523 1524 1526 1527 1528 1528 1529 1532 1536 1535 1536 1537 1536 1534 1537 1539 1541 1541 1541 1542 1543 1543 1545 1544 1544 1542 1544 1548 1545 1546 1545 1546 1548 1548 1549
1522 1522 1524 1520 1521 1521 1523 1523 1526 1527 1525 1529 1527 1527 1529 1529 1529 1532 1535 1533 1533 1532 1535 1538 1539 1540 1540 1542 1541 1543 1542 1541 1541 1541 1544 1547 1546 1545 1546 1546 1546 1546 1548
1525 1523 1521 1520 1522 1523 1523 1521 1525 1526 1526 1526 1526 1525 1526 1528 1532 1530 1531 1533 1530 1532 1536 1537 1535 1537 1537 1539 1540 1539 1539 1539 1539 1542 1545 1545 1546 1543 1544 1545 1546 1546 1549
1524 1524 1522 1523 1523 1522 1524 1524 1524 1525 1524 1525 1524 1525 1527 1529 1530 1529 1529 1530 1533 1534 1532 1531 1529 1535 1535 1537 1538 1538 1537 1538 1538 1540 1542 1542 1545 1543 1543 1544 1547 1548 1549
1526 1524 1523 1524 1523 1524 1524 1524 1524 1524 1524 1524 1524 1525 1528 1528 1527 1526 1528 1529 1533 1532 1515 1527 1534 1535 1534 1534 1535 1536 1536 1536 1537 1541 1541 1541 1541 1542 1542 1543 1546 1547 1549
1529 1526 1527 1525 1524 1525 1524 1524 1524 1523 1524 1523 1524 1524 1525 1527 1526 1526 1526 1528 1532 1534 1535 1535 1533 1532 1531 1532 1532 1533 1534 1533 1535 1537 1540 1541 1539 1540 1541 1541 1545 1546 1548
1528 1528 1530 1529 1526 1525 1525 1524 1523 1522 1523 1523 1523 1523 1524 1525 1526 1523 1522 1526 1526 1526 1531 1531 1529 1530 1529 1530 1531 1530 1532 1532 1533 1534 1538 1539 1535 1536 1539 1540 1542 1546 1546
1529 1530 1530 1530 1529 1528 1528 1524 1523 1523 1523 1523 1523 1523 1523 1523 1523 1524 1522 1523 1524 1525 1524 1526 1527 1528 1528 1528 1529 1529 1532 1532 1529 1532 1533 1536 1533 1533 1535 1538 1539 1542 1543
1530 1529 1527 1529 1528 1526 1527 1525 1524 1523 1523 1523 1523 1523 1522 1523 1521 1521 1521 1519 1519 1519 1519 1519 1519 1523 1525 1526 1526 1529 1529 1528 1529 1527 1529 1528 1529 1531 1532 1535 1537 1538 1540
1529 1529 1527 1525 1524 1524 1526 1524 1524 1523 1523 1523 1523 1522 1522 1520 1520 1520 1518 1518 1517 1517 1515 1515 1515 1517 1521 1525 1526 1527 1526 1526 1525 1526 1526 1524 1525 1527 1529 1531 1532 1535 1537
1528 1527 1525 1523 1522 1523 1524 1524 1522 1521 1521 1520 1520 1519 1518 1517 1517 1516 1516 1518 1516 1514 1513 1511 1513 1512 1519 1521 1519 1520 1524 1521 1522 1521 1520 1520 1520 1523 1524 1526 1527 1531 1533
1528 1526 1523 1522 1521 1521 1524 1524 1523 1522 1520 1520 1517 1517 1515 1514 1514 1513 1513 1513 1512 1510 1509 1508 1505 1506 1515 1516 1514 1515 1516 1516 1515 1512 1512 1513 1513 1515 1518 1520 1522 1526 1528
1527 1526 1524 1522 1523 1523 1523 1522 1521 1520 1519 1518 1517 1514 1514 1513 1511 1511 1509 1508 1508 1507 1505 1502 1503 1504 1508 1506 1505 1508 1511 1510 1508 1507 1506 1505 1505 1508 1511 1514 1516 1521 1524
1526 1525 1523 1523 1522 1523 1523 1521 1519 1518 1517 1517 1515 1514 1513 1512 1511 1510 1510 1508 1506 1504 1503 1504 1503 1502 1501 1503 1506 1503 1503 1504 1502 1500 1500 1499 1499 1500 1501 1505 1508 1516 1519
1523 1521 1520 1520 1518 1518 1518 1517 1517 1516 1516 1515 1514 1513 1511 1510 1509 1508 1508 1507 1505 1503 1503 1503 1501 1502 1500 1500 1499 1500 1499 1498 1498 1494 1495 1493 1493 1493 1495 1497 1500 1504 1512
1516 1516 1516 1516 1516 1515 1516 1516 1517 1514 1513 1511 1510 1508 1507 1507 1506 1505 1505 1504 1503 1501 1499 1498 1498 1497 1496 1494 1494 1492 1491 1494 1494 1492 1491 1490 1488 1486 1487 1490 1493 1497 1501
1517 1517 1517 1516 1516 1515 1514 1516 1514 1512 1512 1511 1509 1507 1506 1505 1504 1503 1502 1502 1500 1499 1497 1495 1493 1492 1492 1491 1488 1488 1486 1488 1488 1487 1486 1483 1482 1481 1482 1482 1485 1490 1495
1514 1513 1513 1512 1512 1512 1511 1510 1511 1511 1511 1509 1508 1507 1505 1504 1502 1502 1502 1500 1499 1499 1497 1494 1493 1491 1490 1489 1486 1483 1481 1482 1480 1480 1478 1479 1477 1475 1476 1478 1479 1482 1485
1509 1509 1509 1509 1508 1509 1509 1509 1510 1509 1508 1508 1506 1504 1503 1503 1501 1501 1501 1500 1498 1498 1496 1495 1494 1493 1490 1488 1485 1483 1480 1476 1474 1473 1473 1472 1471 1470 1469 1470 1471 1473 1477
1504 1504 1504 1504 1505 1505 1506 1505 1506 1505 1506 1506 1505 1502 1501 1500 1500 1499 1498 1498 1498 1496 1495 1494 1493 1492 1490 1488 1486 1483 1477 1474 1472 1468 1467 1467 1466 1465 1463 1463 1464 1466 1468
1500 1501 1501 1502 1502 1501 1502 1502 1501 1500 1499 1499 1499 1499 1496 1496 1496 1496 1496 1496 1494 1494 1493 1491 1490 1488 1485 1484 1482 1480 1474 1470 1466 1465 1464 1460 1459 1458 1459 1456 1456 1457 1460
1497 1497 1497 1498 1498 1498 1497 1497 1496 1496 1494 1494 1493 1494 1493 1493 1492 1493 1492 1492 1491 1491 1490 1488 1486 1484 1482 1479 1476 1475 1473 1470 1466 1459 1459 1456 1455 1452 1451 1450 1450 1450 1452
1494 1492 1491 1492 1492 1492 1491 1489 1489 1487 1487 1488 1489 1489 1490 1489 1488 1488 1487 1487 1486 1485 1485 1484 1482 1480 1477 1474 1472 1470 1468 1465 1464 1460 1451 1452 1451 1449 1445 1444 1442 1442 1444
1490 1489 1488 1488 1487 1486 1486 1483 1481 1481 1481 1482 1482 1482 1483 1483 1483 1482 1481 1480 1479 1478 1476 1476 1475 1473 1472 1469 1466 1465 1463 1462 1459 1456 1450 1446 1444 1443 1442 1439 1437 1438 1438